FW5398 Weather Reports


Display with metric or nautical units.
time (UTC)temp
F
wind
direction
speed
MPH
gust
MPH
rain 1hr
in
rain 24hr
in
rain mn
in
humidity
%
barometer
mb
20260508153054 42 350 4.0 8.0 0.00 0.80 0.01 86 1002.1
20260508151548 42 5 2.0 9.0 0.00 0.80 0.01 86 1001.9
20260508150045 42 336 3.0 6.0 0.00 0.80 0.01 86 1002.1
20260508144544 42 355 3.0 5.0 0.00 0.80 0.01 86 1002.1
20260508143042 41 288 2.0 5.0 0.00 0.80 0.01 85 1002.3
20260508141541 42 344 2.0 4.0 0.00 0.80 0.01 85 1002.5
20260508140039 42 324 2.0 5.0 0.00 0.80 0.01 86 1002.5
20260508134542 42 321 2.0 4.0 0.00 0.80 0.01 86 1002.6
20260508133045 44 286 2.0 4.0 0.00 0.80 0.01 86 1002.5
20260508131545 44 347 2.0 4.0 0.00 0.80 0.01 86 1002.4
20260508130047 43 338 0.0 3.0 0.00 0.80 0.01 86 1002.2
20260508124536 44 360 1.0 4.0 0.00 0.80 0.01 86 1002.0
20260508123038 44 343 2.0 5.0 0.00 0.80 0.01 86 1001.9
20260508121536 43 5 1.0 4.0 0.00 0.80 0.01 86 1002.0
20260508120034 44 360 0.0 4.0 0.00 0.80 0.01 86 1002.0
20260508114533 43 5 1.0 3.0 0.00 0.81 0.01 86 1001.8
20260508113040 43 22 0.0 1.0 0.00 0.81 0.01 86 1001.8
20260508111535 42 22 0.0 2.0 0.00 0.81 0.01 86 1002.1
20260508110046 42 79 0.0 1.0 0.00 0.81 0.01 86 1002.1
20260508104531 41 79 0.0 2.0 0.00 0.81 0.01 85 1002.4
20260508103036 40 79 0.0 2.0 0.00 0.81 0.01 85 1002.2
20260508101536 41 79 0.0 1.0 0.00 0.81 0.01 85 1002.2
20260508100030 41 79 0.0 1.0 0.01 0.81 0.01 85 1002.2
20260508094529 40 79 0.0 1.0 0.01 0.81 0.01 85 1001.8
20260508093043 41 79 0.0 0.0 0.01 0.81 0.01 85 1001.8
20260508091531 41 79 0.0 1.0 0.01 0.81 0.01 85 1001.6
20260508090034 40 79 0.0 1.0 0.00 0.80 0.00 85 1001.7
20260508084527 40 79 0.0 0.0 0.00 0.80 0.00 85 1001.7
20260508083027 40 79 0.0 1.0 0.00 0.80 0.00 85 1001.4
20260508081523 40 79 0.0 0.0 0.00 0.80 0.00 85 1001.4
20260508080033 41 79 0.0 2.0 0.00 0.80 0.00 85 1001.4
20260508074528 43 85 1.0 3.0 0.00 0.80 0.00 85 1001.4
20260508073023 43 106 0.0 2.0 0.00 0.80 0.00 85 1001.5
20260508071520 43 106 0.0 0.0 0.00 0.80 0.00 85 1001.5
20260508070018 44 106 0.0 1.0 0.00 0.80 0.00 86 1001.6
20260508064516 44 105 0.0 3.0 0.00 0.80 0.00 85 1001.6
20260508063016 43 95 3.0 8.0 0.00 0.80 0.00 86 1001.5
20260508061514 43 83 0.0 5.0 0.00 0.80 0.00 85 1001.7
20260508060013 42 341 0.0 5.0 0.00 0.80 0.00 85 1001.7
20260508054511 42 37 1.0 5.0 0.00 0.80 0.00 85 1001.9
20260508053011 41 44 1.0 7.0 0.00 0.80 0.00 85 1002.1
20260508051508 41 10 0.0 4.0 0.00 0.80 0.00 85 1002.2
20260508050006 42 36 1.0 4.0 0.00 0.80 0.00 85 1002.0
20260508044502 43 5 1.0 3.0 0.00 0.80 0.00 85 1001.9
20260508043059 46 41 1.0 4.0 0.00 0.80 0.00 86 1001.8
20260508041600 45 20 0.0 2.0 0.00 0.80 0.00 86 1001.9
20260508040057 44 348 0.0 1.0 0.00 0.80 0.00 85 1002.0
20260508034601 45 348 0.0 3.0 0.00 0.80 0.00 85 1001.9
20260508033049 47 77 0.0 1.0 0.00 0.80 0.00 86 1002.0
20260508031556 48 74 2.0 7.0 0.00 0.80 0.00 86 1001.9
20260508030054 48 101 6.0 8.0 0.00 0.80 0.00 86 1001.9
20260508024541 48 103 5.0 8.0 0.00 0.80 0.80 86 1002.0
20260508023045 47 70 2.0 7.0 0.00 0.80 0.80 86 1002.2
20260508021538 47 81 1.0 6.0 0.01 0.80 0.80 86 1002.3
20260508020036 47 133 0.0 2.0 0.02 0.80 0.80 86 1002.2
20260508014536 46 31 0.0 0.0 0.03 0.80 0.80 86 1002.8
20260508013037 46 35 0.0 4.0 0.04 0.80 0.80 86 1002.6
20260508011535 46 232 0.0 1.0 0.05 0.79 0.79 86 1002.5
20260508010040 46 232 0.0 3.0 0.06 0.78 0.78 86 1002.5
20260508004533 47 232 0.0 2.0 0.07 0.76 0.76 86 1002.6
20260508003032 47 232 0.0 4.0 0.11 0.76 0.76 86 1002.5
20260508001534 47 203 2.0 5.0 0.10 0.74 0.74 87 1002.4
20260508000031 47 186 4.0 11.0 0.08 0.72 0.72 86 1002.3
20260507234626 49 255 6.0 12.0 0.05 0.69 0.69 86 1002.1
20260507233024 50 256 5.0 8.0 0.01 0.65 0.65 86 1001.7
20260507231522 51 176 5.0 14.0 0.00 0.64 0.64 86 1001.7
20260507230021 50 180 9.0 16.0 0.00 0.64 0.64 84 1001.8
20260507224523 55 151 11.0 16.0 0.00 0.64 0.64 84 1001.0
20260507223017 54 177 12.0 19.0 0.00 0.64 0.64 85 1000.5
20260507221522 54 131 13.0 20.0 0.00 0.64 0.64 85 1000.5
20260507220019 53 137 12.0 20.0 0.00 0.64 0.64 85 1000.7
20260507214514 53 128 11.0 17.0 0.00 0.64 0.64 85 1000.7
20260507213026 53 131 12.0 18.0 0.00 0.64 0.64 85 1000.7
20260507211513 53 123 16.0 23.0 0.00 0.64 0.64 85 1000.6
20260507210028 53 105 14.0 21.0 0.00 0.64 0.64 85 1000.6
20260507204510 53 135 14.0 24.0 0.01 0.64 0.64 86 1000.7
20260507203017 53 151 13.0 20.0 0.06 0.64 0.64 86 1001.0
20260507201514 54 103 13.0 20.0 0.12 0.64 0.64 86 1000.3
20260507200016 54 112 12.0 23.0 0.15 0.64 0.64 86 1000.3
20260507194506 54 114 13.0 20.0 0.17 0.63 0.63 86 1000.6
20260507193132 54 135 13.0 21.0 0.17 0.57 0.57 86 1001.2
20260507191601 54 131 16.0 26.0 0.15 0.51 0.51 86 1002.4
20260507190056 54 137 13.0 21.0 0.19 0.48 0.48 86 1002.6
20260507184555 54 122 13.0 23.0 0.26 0.46 0.46 86 1002.3
20260507183100 54 158 13.0 19.0 0.33 0.41 0.41 86 1003.1
20260507181551 54 137 13.0 26.0 0.34 0.36 0.36 86 1002.9
20260507180049 55 207 11.0 20.0 0.28 0.28 0.28 85 1003.6
20260507174547 55 187 10.0 19.0 0.19 0.20 0.20 85 1003.9
20260507173105 55 199 9.0 23.0 0.06 0.07 0.07 84 1003.7
20260507171545 56 141 9.0 21.0 0.01 0.02 0.02 84 1003.0
20260507170047 57 120 12.0 21.0 0.00 0.01 0.01 83 1002.6
20260507164541 58 176 18.0 32.0 0.00 0.01 0.01 82 1002.5
20260507163039 59 168 10.0 30.0 0.00 0.01 0.01 81 1002.9
20260507161539 60 154 18.0 34.0 0.00 0.01 0.01 81 1003.2
20260507160056 61 125 12.0 27.0 0.00 0.01 0.01 80 1004.4
20260507154535 61 135 15.0 30.0 0.00 0.01 0.01 80 1004.1